This demonstration page uses our WeatherBlox Daily Observations layout. Learn more.

Left ArrowRight Arrow

31.31129, -92.44514

Hourly Observations for August 16, 2016

Temp ( °F °C ) Dew Point ( °F °C ) Humidity (%) Winds ( mph kmh ) Pressure ( in mb ) Visibility ( mi km ) Precip ( " mm )
12:48 am 00:48 Mostly Cloudy 73 23 73 23 100 100 E 3 6 30.06 1018 10 16 0.00 0.00
12:53 am 00:53 Mostly Cloudy 74 23.3 74 23.3 100 100 E 3 6 30.07 1018 10 16 0.00 0.00
1:03 am 01:03 Mostly Cloudy 74 23.3 74 23.3 100 100 E 5 7 30.06 1018 10 16 0.00 0.00
1:53 am 01:53 Mostly Clear 74 23.3 74 23.3 100 100 E 3 6 30.06 1018 10 16 0.00 0.00
2:53 am 02:53 Clear 74 23.3 74 23.3 100 100 E 3 6 30.02 1017 10 16 0.00 0.00
3:25 am 03:25 Mostly Cloudy 75 23.9 74 23.3 96 96 SE 3 6 30.03 1017 10 16 0.00 0.00
3:49 am 03:49 Mostly Cloudy 73 23 73 23 100 100 SE 3 6 30.03 1017 9 14 0.00 0.00
3:53 am 03:53 Mostly Cloudy 75 23.9 75 23.9 100 100 SE 3 6 30.03 1017 9 14 0.00 0.00
4:01 am 04:01 Cloudy 75 23.9 75 23.9 100 100 SE 3 6 30.03 1017 9 14 0.00 0.00
4:21 am 04:21 Cloudy 75 23.9 75 23.9 100 100 SE 3 6 30.03 1017 9 14 0.00 0.00
4:53 am 04:53 Cloudy 75 23.9 75 23.9 100 100 SSE 3 6 30.03 1017 8 13 0.00 0.00
5:53 am 05:53 Cloudy 75 23.9 75 23.9 100 100 Calm 30.04 1017 8 13 0.00 0.00
6:53 am 06:53 Cloudy 75 23.9 75 23.9 100 100 Calm 30.05 1018 9 14 0.00 0.00
7:09 am 07:09 Cloudy 75 23.9 75 23.9 100 100 E 3 6 30.06 1018 9 14 0.00 0.00
7:30 am 07:30 Cloudy 76 24.4 76 24.4 100 100 Calm 30.06 1018 8 13 0.00 0.00
7:49 am 07:49 Partly Cloudy 75 24 75 24 100 100 E 3 6 30.06 1018 8 13 0.00 0.00
7:53 am 07:53 Partly Cloudy 76 24.4 76 24.4 100 100 E 3 6 30.06 1018 8 13 0.00 0.00
8:42 am 08:42 Mostly Sunny 77 25 77 25 100 100 ESE 8 13 30.06 1018 8 13 0.00 0.00
8:53 am 08:53 Partly Cloudy 77 25 76 24.4 96 96 ESE 7 11 30.07 1018 9 14 0.00 0.00
9:04 am 09:04 Mostly Cloudy 78 25.6 77 25 97 97 SE 7 11 30.06 1018 9 14 0.00 0.00
9:12 am 09:12 Partly Cloudy 78 25.6 77 25 97 97 SE 6 9 30.06 1018 9 14 0.00 0.00
9:53 am 09:53 Partly Cloudy 82 27.8 78 25.6 88 88 ESE 9 15 30.08 1019 10 16 0.00 0.00
10:04 am 10:04 Mostly Cloudy 82 27.8 77 25 85 85 SE 10 17 30.09 1019 10 16 0.00 0.00
10:36 am 10:36 Partly Cloudy 83 28.3 78 25.6 85 85 SE 7 11 30.09 1019 10 16 0.00 0.00
10:48 am 10:48 Mostly Cloudy 82 28 79 26 89 89 S 7 11 30.09 1019 10 16 0.00 0.00
10:53 am 10:53 Mostly Cloudy 82 27.8 78 25.6 88 88 SSE 8 13 30.10 1019 10 16 0.00 0.00
11:17 am 11:17 Partly Cloudy 83 28.3 78 25.6 85 85 SE 9 15 30.09 1019 10 16 0.00 0.00
11:53 am 11:53 Partly Cloudy 82 27.8 77 25 85 85 SE 5 7 30.09 1019 10 16 0.00 0.03
12:53 pm 12:53 Partly Cloudy 88 31.1 77 25 70 70 SE 10 17 30.06 1018 10 16 0.00 0.00
1:53 pm 13:53 Mostly Sunny 86 30 76 24.4 72 72 SSE 8 13 30.03 1017 10 16 0.00 0.00
2:53 pm 14:53 Mostly Cloudy 78 25.6 74 23.3 87 87 W 12 19 30.04 1017 10 16 0.00 0.03
3:03 pm 15:03 Mostly Cloudy with Thunderstorms 77 25 74 23.3 90 90 W 5 7 30.06 1018 10 16 0.00 0.03
3:36 pm 15:36 Cloudy with Nearby Thunderstorms 76 24.4 75 23.9 97 97 NNW 8 13 30.06 1018 10 16 0.00 0.03
3:53 pm 15:53 Mostly Cloudy with Light Rain 76 24.4 74 23.3 94 94 NNW 5 7 30.07 1018 10 16 0.00 0.03
4:53 pm 16:53 Sunny 76 24.4 74 23.3 94 94 NNW 6 9 30.07 1018 10 16 0.00 0.03
5:30 pm 17:30 Mostly Cloudy with Rain 76 24.4 74 23.3 94 94 VRB 3 6 30.09 1019 2 3 0.03 0.76
5:32 pm 17:32 Mostly Cloudy with Nearby Thunderstorms 76 24.4 74 23.3 94 94 W 5 7 30.09 1019 3 4 0.03 0.76
5:53 pm 17:53 Mostly Cloudy with Nearby Thunderstorms 76 24.4 75 23.9 97 97 Calm 30.11 1020 2 3 0.04 1.02
6:00 pm 18:00 Mostly Cloudy with Nearby Thunderstorms 76 24.4 74 23.3 94 94 NNE 5 7 30.12 1020 4 6 0.01 0.25
6:07 pm 18:07 Cloudy with Rain 76 24.4 75 23.9 97 97 NE 5 7 30.09 1019 4 6 0.03 0.76
6:53 pm 18:53 Partly Cloudy with Light Rain 75 23.9 74 23.3 96 96 NNE 7 11 30.09 1019 9 14 0.07 1.78
7:53 pm 19:53 Mostly Clear 75 23.9 74 23.3 96 96 ENE 5 7 30.11 1020 10 16 0.01 0.25
8:53 pm 20:53 Mostly Cloudy 74 23.3 74 23.3 100 100 E 5 7 30.12 1020 10 16 0.00 0.00
9:44 pm 21:44 Partly Cloudy 74 23.3 74 23.3 100 100 E 5 7 30.12 1020 10 16 0.00 0.00
9:53 pm 21:53 Partly Cloudy 74 23.3 74 23.3 100 100 E 5 7 30.13 1020 10 16 0.00 0.00
10:53 pm 22:53 Mostly Cloudy 74 23.3 74 23.3 100 100 ESE 6 9 30.13 1020 10 16 0.00 0.00
11:00 pm 23:00 Cloudy 74 23.3 73 22.8 97 97 ESE 5 7 30.12 1020 10 16 0.00 0.00
11:53 pm 23:53 Cloudy 74 23.3 73 22.8 97 97 ESE 7 11 30.13 1020 10 16 0.00 0.00

Powered by AerisWeather